Weather History for Gioia del Colle, Italy

Change the Weather History Date:

Sunday, July 14, 2013

  Actual Average Record
Temperature  
Mean Temperature 74 °F -  
Max Temperature 84 °F 85 °F 98 °F (2012)
Min Temperature 65 °F 61 °F 57 °F (2004)
Cooling Degree Days 10    
Growing Degree Days 24 (Base 50)    
Moisture  
Dew Point 63 °F    
Average Humidity 70    
Maximum Humidity 88    
Minimum Humidity 42    
Precipitation  
Precipitation 0.00 in 0.05 in - ()
Sea Level Pressure  
Sea Level Pressure 29.96 in    
Wind  
Wind Speed 6 mph ()    
Max Wind Speed 25 mph    
Max Gust Speed -    
Visibility 5.9 miles    
Events Rain , Thunderstorm    
Averages and records for this station are not official NWS values.
T = Trace of Precipitation, MM = Missing Value Source: Averaged Metar Reports

Daily Weather History Graph

Daily Weather History Graph

Search for Another Location

Airport:

Trip Planner

Search our weather history database for the weather conditions in past years. The results will help you decide how hot, cold, wet, or windy it might be!

Date:

Astronomy

Jul. 14, 2013 Rise Set
Actual Time 5:32 AM CEST 8:22 PM CEST
Civil Twilight 5:00 AM CEST 8:55 PM CEST
Nautical Twilight 4:19 AM CEST 9:36 PM CEST
Astronomical Twilight 3:32 AM CEST 10:22 PM CEST
Moon 11:34 AM CEST (7/14) 11:22 PM CEST (7/14)
Length of Visible Light 15h 54m
Length of Day
14h 49m
Waxing Crescent, 32% of the Moon is Illuminated
Jul 14
Waxing Crescent
Jul 16
First Quarter
Jul 22
Full
Jul 29
Last Quarter
Aug 6
New

Hourly Weather History & Observations

Time (CEST) Temp. Heat Index Dew Point Humidity Pressure Visibility Wind Dir Wind Speed Gust Speed Precip Events Conditions
12:55 AM 69.8 °F - 60.8 °F 73% 29.98 in - Calm Calm - N/A   Clear
1:55 AM 68.0 °F - 62.6 °F 83% 29.98 in - NNW 2.3 mph - N/A   Clear
2:55 AM 68.0 °F - 62.6 °F 83% 29.98 in - WNW 3.5 mph - N/A   Clear
3:55 AM 66.2 °F - 59.0 °F 78% 29.98 in - North 2.3 mph - N/A   Clear
4:55 AM 64.4 °F - 59.0 °F 83% 29.98 in - Calm Calm - N/A   Clear
5:00 AM 64 °F - 59 °F 78% 29.97 in 6 mi Calm Calm - -  
5:55 AM 66.2 °F - 59.0 °F 78% 29.98 in - Calm Calm - N/A   Clear
6:55 AM 69.8 °F - 60.8 °F 73% 29.98 in 5.0 mi North 4.6 mph - N/A   Unknown
7:55 AM 71.6 °F - 60.8 °F 69% 29.95 in - North 6.9 mph - N/A   Clear
8:00 AM 72 °F - 61 °F 61% 29.92 in 6 mi North 6.9 mph - -   Mostly Cloudy
8:55 AM 77.0 °F - 64.4 °F 65% 29.95 in - North 6.9 mph - N/A   Clear
9:55 AM 78.8 °F - 64.4 °F 61% 29.95 in - North 6.9 mph - N/A   Clear
10:55 AM 78.8 °F - 64.4 °F 61% 29.98 in 6.2 mi North 9.2 mph - N/A   Partly Cloudy
11:00 AM 79 °F - 64 °F 51% 29.92 in 6 mi North 17.9 mph - -   Overcast
11:55 AM 77.0 °F - 68.0 °F 74% 29.98 in 5.0 mi North 17.3 mph - N/A Thunderstorm Thunderstorm
12:55 PM 69.8 °F - 66.2 °F 88% 29.98 in 5.6 mi North 15.0 mph - N/A Rain , Thunderstorm Light Thunderstorms and Rain
1:14 PM 71.6 °F - 64.4 °F 78% 29.98 in 6.2 mi NNE 9.2 mph - N/A   Scattered Clouds
1:55 PM 75.2 °F - 66.2 °F 73% 29.98 in 6.2 mi NNE 6.9 mph - N/A   Partly Cloudy
2:00 PM 75 °F - 66 °F 67% 29.93 in 5 mi NNE 6.9 mph - - Thunderstorm Light Thunderstorm
2:55 PM 82.4 °F 85.4 °F 68.0 °F 62% 29.95 in - ESE 6.9 mph - N/A   Clear
3:55 PM 82.4 °F 83.9 °F 64.4 °F 54% 29.95 in 6.2 mi NNE 11.5 mph - N/A   Scattered Clouds
4:55 PM 80.6 °F 81.5 °F 60.8 °F 51% 29.95 in 6.2 mi NNE 12.7 mph - N/A   Scattered Clouds
5:00 PM 80 °F - 61 °F 42% 29.90 in 6 mi NNE 24.6 mph - -   Partly Cloudy
5:55 PM 77.0 °F - 60.8 °F 57% 29.95 in 6.2 mi North 11.5 mph - N/A Thunderstorm Thunderstorm
6:55 PM 75.2 °F - 62.6 °F 65% 29.98 in 6.2 mi NNW 9.2 mph - N/A Thunderstorm Thunderstorm
7:55 PM 73.4 °F - 62.6 °F 69% 29.98 in 6.2 mi NNW 9.2 mph - N/A   Scattered Clouds
8:00 PM 74 °F - 63 °F 60% 29.94 in 5 mi NNW 17.9 mph - - Thunderstorm Light Thunderstorm
8:55 PM 73.4 °F - 64.4 °F 73% 29.98 in 6.2 mi NNW 9.2 mph - N/A   Partly Cloudy
9:55 PM 71.6 °F - 66.2 °F 83% 29.98 in - NNW 10.4 mph - N/A   Clear
10:55 PM 69.8 °F - 66.2 °F 88% 29.98 in - North 9.2 mph - N/A   Clear
11:00 PM 71 °F - 66 °F 80% 29.96 in 6 mi North 9.2 mph - -   Partly Cloudy
11:55 PM 68.0 °F - 64.4 °F 88% 29.98 in - NW 5.8 mph - N/A   Clear